sat.trackr.live / text

‹ back to catalog

UNKNOWN

NORAD 85422

UNKNOWN UNKNOWN UNKNOWN

§ Identity

Operator
Country
Launch date
Launch site
Launch vehicle
Mass (kg)
RCS (m²)

External: N2YO · Heavens-Above

§ Orbital elements

Epoch: 2026-05-17T09:54:19.661184Z

Period
101.58 min
Inclination
98.8428°
Eccentricity
0.0008568
Mean motion
14.17632266 rev/d
Perigee alt
827.2 km
Apogee alt
839.6 km
Semi-major
7,211.5 km
B*
8.3451e-4
RAAN
189.3876°
Arg perigee
68.5268°
Mean anomaly
291.6820°
Rev number
1

§ Raw data

UNKNOWN1 85422U          26137.41272756  .00001653  00000+0  83451-3 0  99922 85422  98.8428 189.3876 0008568  68.5268 291.6820 14.17632266    13

JSON: /api/v1/satellites/85422 · /tle

For live sub-satellite position, see the globe view (requires WebGL).

§ Visibility from observer

Set your observer location to see the next 7 days of passes ≥ 10°. The values pass through the URL so the page stays shareable.

No JS? Fill the form by hand. The geolocation button needs JavaScript.